Year,Month,Day,Hour,Minute,Value (Times are PST for temperature in C)
2010,02,20,00,00,4.90
2010,02,20,00,01,4.90
2010,02,20,00,02,4.80
2010,02,20,00,03,4.80
2010,02,20,00,04,4.80
2010,02,20,00,05,4.80
2010,02,20,00,06,4.70
2010,02,20,00,07,4.70
2010,02,20,00,08,4.70
2010,02,20,00,09,4.70
2010,02,20,00,10,4.70
2010,02,20,00,11,4.70
2010,02,20,00,12,4.70
2010,02,20,00,13,4.70
2010,02,20,00,14,4.60
2010,02,20,00,15,4.60
2010,02,20,00,16,4.60
2010,02,20,00,17,4.70
2010,02,20,00,18,4.80
2010,02,20,00,19,4.90
2010,02,20,00,20,4.90
2010,02,20,00,21,5.10
2010,02,20,00,22,5.10
2010,02,20,00,23,5.10
2010,02,20,00,24,5.20
2010,02,20,00,25,5.30
2010,02,20,00,26,5.40
2010,02,20,00,27,5.50
2010,02,20,00,28,5.50
2010,02,20,00,29,5.50
2010,02,20,00,30,5.60
2010,02,20,00,31,5.60
2010,02,20,00,32,5.60
2010,02,20,00,33,5.60
2010,02,20,00,34,5.70
2010,02,20,00,35,5.70
2010,02,20,00,36,5.70
2010,02,20,00,37,5.70
2010,02,20,00,38,5.70
2010,02,20,00,39,5.70
2010,02,20,00,40,5.70
2010,02,20,00,41,5.70
2010,02,20,00,42,5.60
2010,02,20,00,43,5.60
2010,02,20,00,44,5.60
2010,02,20,00,45,5.60
2010,02,20,00,46,5.70
2010,02,20,00,47,5.70
2010,02,20,00,48,5.70
2010,02,20,00,49,5.70
2010,02,20,00,50,5.60
2010,02,20,00,51,5.70
2010,02,20,00,52,5.70
2010,02,20,00,53,5.70
2010,02,20,00,54,5.70
2010,02,20,00,55,5.70
2010,02,20,00,56,5.70
2010,02,20,00,57,5.70
2010,02,20,00,58,5.70
2010,02,20,00,59,5.70
2010,02,20,01,00,5.70
2010,02,20,01,01,5.70
2010,02,20,01,02,5.70
2010,02,20,01,03,5.70
2010,02,20,01,04,5.70
2010,02,20,01,05,5.70
2010,02,20,01,06,5.70
2010,02,20,01,07,5.70
2010,02,20,01,08,5.70
2010,02,20,01,09,5.60
2010,02,20,01,10,5.70
2010,02,20,01,11,5.70
2010,02,20,01,12,5.60
2010,02,20,01,13,5.60
2010,02,20,01,14,5.60
2010,02,20,01,15,5.60
2010,02,20,01,16,5.50
2010,02,20,01,17,5.50
2010,02,20,01,18,5.50
2010,02,20,01,19,5.50
2010,02,20,01,20,5.40
2010,02,20,01,21,5.40
2010,02,20,01,22,5.40
2010,02,20,01,23,5.30
2010,02,20,01,24,5.30
2010,02,20,01,25,5.30
2010,02,20,01,26,5.30
2010,02,20,01,27,5.20
2010,02,20,01,28,5.10
2010,02,20,01,29,5.10
2010,02,20,01,30,5.10
2010,02,20,01,31,5.00
2010,02,20,01,32,4.90
2010,02,20,01,33,4.90
2010,02,20,01,34,4.80
2010,02,20,01,35,4.70
2010,02,20,01,36,4.60
2010,02,20,01,37,4.60
2010,02,20,01,38,4.60
2010,02,20,01,39,4.60
2010,02,20,01,40,4.70
2010,02,20,01,41,4.80
2010,02,20,01,42,4.80
2010,02,20,01,43,4.80
2010,02,20,01,44,4.80
2010,02,20,01,45,4.80
2010,02,20,01,46,4.80
2010,02,20,01,47,4.70
2010,02,20,01,48,4.70
2010,02,20,01,49,4.60
2010,02,20,01,50,4.60
2010,02,20,01,51,4.60
2010,02,20,01,52,4.60
2010,02,20,01,53,4.60
2010,02,20,01,54,4.60
2010,02,20,01,55,4.50
2010,02,20,01,56,4.50
2010,02,20,01,57,4.50
2010,02,20,01,58,4.50
2010,02,20,01,59,4.50
2010,02,20,02,00,4.50
2010,02,20,02,01,4.50
2010,02,20,02,02,4.50
2010,02,20,02,03,4.40
2010,02,20,02,04,4.30
2010,02,20,02,05,4.30
2010,02,20,02,06,4.20
2010,02,20,02,07,4.20
2010,02,20,02,08,4.20
2010,02,20,02,09,4.20
2010,02,20,02,10,4.20
2010,02,20,02,11,4.20
2010,02,20,02,12,4.10
2010,02,20,02,13,4.10
2010,02,20,02,14,4.10
2010,02,20,02,15,4.10
2010,02,20,02,16,4.00
2010,02,20,02,17,4.00
2010,02,20,02,18,4.00
2010,02,20,02,19,4.00
2010,02,20,02,20,4.00
2010,02,20,02,21,3.90
2010,02,20,02,22,3.90
2010,02,20,02,23,3.90
2010,02,20,02,24,3.90
2010,02,20,02,25,3.80
2010,02,20,02,26,3.80
2010,02,20,02,27,3.80
2010,02,20,02,28,3.80
2010,02,20,02,29,3.80
2010,02,20,02,30,3.80
2010,02,20,02,31,3.80
2010,02,20,02,32,3.80
2010,02,20,02,33,3.80
2010,02,20,02,34,3.80
2010,02,20,02,35,3.80
2010,02,20,02,36,3.80
2010,02,20,02,37,3.80
2010,02,20,02,38,3.80
2010,02,20,02,39,3.90
2010,02,20,02,40,3.90
2010,02,20,02,41,3.90
2010,02,20,02,42,4.00
2010,02,20,02,43,4.00
2010,02,20,02,44,4.00
2010,02,20,02,45,4.00
2010,02,20,02,46,4.00
2010,02,20,02,47,4.10
2010,02,20,02,48,4.10
2010,02,20,02,49,4.10
2010,02,20,02,50,4.10
2010,02,20,02,51,4.10
2010,02,20,02,52,4.10
2010,02,20,02,53,4.20
2010,02,20,02,54,4.20
2010,02,20,02,55,4.20
2010,02,20,02,56,4.20
2010,02,20,02,57,4.20
2010,02,20,02,58,4.20
2010,02,20,02,59,4.30
2010,02,20,03,00,4.30
2010,02,20,03,01,4.30
2010,02,20,03,02,4.30
2010,02,20,03,03,4.20
2010,02,20,03,04,4.20
2010,02,20,03,05,4.20
2010,02,20,03,06,4.30
2010,02,20,03,07,4.30
2010,02,20,03,08,4.30
2010,02,20,03,09,4.40
2010,02,20,03,10,4.40
2010,02,20,03,11,4.40
2010,02,20,03,12,4.40
2010,02,20,03,13,4.50
2010,02,20,03,14,4.50
2010,02,20,03,15,4.60
2010,02,20,03,16,4.60
2010,02,20,03,17,4.60
2010,02,20,03,18,4.60
2010,02,20,03,19,4.60
2010,02,20,03,20,4.60
2010,02,20,03,21,4.60
2010,02,20,03,22,4.60
2010,02,20,03,23,4.60
2010,02,20,03,24,4.60
2010,02,20,03,25,4.60
2010,02,20,03,26,4.60
2010,02,20,03,27,4.60
2010,02,20,03,28,4.60
2010,02,20,03,29,4.60
2010,02,20,03,30,4.60
2010,02,20,03,31,4.60
2010,02,20,03,32,4.60
2010,02,20,03,33,4.60
2010,02,20,03,34,4.60
2010,02,20,03,35,4.70
2010,02,20,03,36,4.70
2010,02,20,03,37,4.70
2010,02,20,03,38,4.70
2010,02,20,03,39,4.70
2010,02,20,03,40,4.80
2010,02,20,03,41,4.80
2010,02,20,03,42,4.80
2010,02,20,03,43,4.80
2010,02,20,03,44,4.90
2010,02,20,03,45,4.90
2010,02,20,03,46,4.90
2010,02,20,03,47,4.90
2010,02,20,03,48,4.90
2010,02,20,03,49,5.00
2010,02,20,03,50,5.10
2010,02,20,03,51,5.10
2010,02,20,03,52,5.10
2010,02,20,03,53,5.10
2010,02,20,03,54,5.10
2010,02,20,03,55,5.20
2010,02,20,03,56,5.20
2010,02,20,03,57,5.20
2010,02,20,03,58,5.20
2010,02,20,03,59,5.20
2010,02,20,04,00,5.20
2010,02,20,04,01,5.20
2010,02,20,04,02,5.20
2010,02,20,04,03,5.30
2010,02,20,04,04,5.30
2010,02,20,04,05,5.30
2010,02,20,04,06,5.30
2010,02,20,04,07,5.30
2010,02,20,04,08,5.30
2010,02,20,04,09,5.30
2010,02,20,04,10,5.30
2010,02,20,04,11,5.30
2010,02,20,04,12,5.30
2010,02,20,04,13,5.30
2010,02,20,04,14,5.20
2010,02,20,04,15,5.10
2010,02,20,04,16,5.10
2010,02,20,04,17,5.00
2010,02,20,04,18,4.90
2010,02,20,04,19,4.90
2010,02,20,04,20,4.90
2010,02,20,04,21,4.80
2010,02,20,04,22,4.80
2010,02,20,04,23,4.80
2010,02,20,04,24,4.80
2010,02,20,04,25,4.90
2010,02,20,04,26,4.90
2010,02,20,04,27,4.90
2010,02,20,04,28,4.90
2010,02,20,04,29,5.00
2010,02,20,04,30,5.10
2010,02,20,04,31,5.10
2010,02,20,04,32,5.10
2010,02,20,04,33,5.20
2010,02,20,04,34,5.30
2010,02,20,04,35,5.30
2010,02,20,04,36,5.30
2010,02,20,04,37,5.40
2010,02,20,04,38,5.40
2010,02,20,04,39,5.50
2010,02,20,04,40,5.50
2010,02,20,04,41,5.50
2010,02,20,04,42,5.50
2010,02,20,04,43,5.50
2010,02,20,04,44,5.20
2010,02,20,04,45,4.10
2010,02,20,04,46,4.10
2010,02,20,04,47,4.10
2010,02,20,04,48,4.10
2010,02,20,04,49,4.20
2010,02,20,04,50,4.20
2010,02,20,04,51,4.20
2010,02,20,04,52,4.20
2010,02,20,04,53,4.20
2010,02,20,04,54,4.30
2010,02,20,04,55,4.30
2010,02,20,04,56,4.30
2010,02,20,04,57,4.40
2010,02,20,04,58,4.40
2010,02,20,04,59,4.40
2010,02,20,05,00,4.40
2010,02,20,05,01,4.40
2010,02,20,05,02,4.40
2010,02,20,05,03,4.40
2010,02,20,05,04,4.40
2010,02,20,05,05,4.40
2010,02,20,05,06,4.40
2010,02,20,05,07,4.40
2010,02,20,05,08,4.40
2010,02,20,05,09,4.40
2010,02,20,05,10,4.40
2010,02,20,05,11,4.40
2010,02,20,05,12,4.50
2010,02,20,05,13,4.50
2010,02,20,05,14,4.50
2010,02,20,05,15,4.50
2010,02,20,05,16,4.50
2010,02,20,05,17,4.50
2010,02,20,05,18,4.50
2010,02,20,05,19,4.60
2010,02,20,05,20,4.60
2010,02,20,05,21,4.50
2010,02,20,05,22,4.50
2010,02,20,05,23,4.50
2010,02,20,05,24,4.50
2010,02,20,05,25,4.50
2010,02,20,05,26,4.50
2010,02,20,05,27,4.40
2010,02,20,05,28,4.40
2010,02,20,05,29,4.30
2010,02,20,05,30,4.30
2010,02,20,05,31,4.30
2010,02,20,05,32,4.30
2010,02,20,05,33,4.20
2010,02,20,05,34,4.20
2010,02,20,05,35,4.20
2010,02,20,05,36,4.20
2010,02,20,05,37,4.20
2010,02,20,05,38,4.20
2010,02,20,05,39,4.20
2010,02,20,05,40,4.10
2010,02,20,05,41,4.10
2010,02,20,05,42,4.10
2010,02,20,05,43,4.10
2010,02,20,05,44,4.10
2010,02,20,05,45,4.10
2010,02,20,05,46,4.10
2010,02,20,05,47,4.20
2010,02,20,05,48,4.20
2010,02,20,05,49,4.20
2010,02,20,05,50,4.20
2010,02,20,05,51,4.20
2010,02,20,05,52,4.20
2010,02,20,05,53,4.20
2010,02,20,05,54,4.20
2010,02,20,05,55,4.20
2010,02,20,05,56,4.20
2010,02,20,05,57,4.20
2010,02,20,05,58,4.20
2010,02,20,05,59,4.20
2010,02,20,06,00,4.20
2010,02,20,06,01,4.20
2010,02,20,06,02,4.20
2010,02,20,06,03,4.20
2010,02,20,06,04,4.30
2010,02,20,06,05,4.30
2010,02,20,06,06,4.30
2010,02,20,06,07,4.30
2010,02,20,06,08,4.30
2010,02,20,06,09,4.30
2010,02,20,06,10,4.30
2010,02,20,06,11,4.30
2010,02,20,06,12,4.30
2010,02,20,06,13,4.30
2010,02,20,06,14,4.30
2010,02,20,06,15,4.30
2010,02,20,06,16,4.30
2010,02,20,06,17,4.30
2010,02,20,06,18,4.30
2010,02,20,06,19,4.30
2010,02,20,06,20,4.30
2010,02,20,06,21,4.30
2010,02,20,06,22,4.30
2010,02,20,06,23,4.30
2010,02,20,06,24,4.30
2010,02,20,06,25,4.30
2010,02,20,06,26,4.20
2010,02,20,06,27,4.20
2010,02,20,06,28,4.20
2010,02,20,06,29,4.20
2010,02,20,06,30,4.20
2010,02,20,06,31,4.20
2010,02,20,06,32,4.20
2010,02,20,06,33,4.20
2010,02,20,06,34,4.20
2010,02,20,06,35,4.20
2010,02,20,06,36,4.20
2010,02,20,06,37,4.20
2010,02,20,06,38,4.20
2010,02,20,06,39,4.20
2010,02,20,06,40,4.20
2010,02,20,06,41,4.20
2010,02,20,06,42,4.20
2010,02,20,06,43,4.20
2010,02,20,06,44,4.20
2010,02,20,06,45,4.20
2010,02,20,06,46,4.20
2010,02,20,06,47,4.20
2010,02,20,06,48,4.20
2010,02,20,06,49,4.20
2010,02,20,06,50,4.20
2010,02,20,06,51,4.20
2010,02,20,06,52,4.20
2010,02,20,06,53,4.20
2010,02,20,06,54,4.20
2010,02,20,06,55,4.20
2010,02,20,06,56,4.20
2010,02,20,06,57,4.20
2010,02,20,06,58,4.20
2010,02,20,06,59,4.20
2010,02,20,07,00,4.20
2010,02,20,07,01,4.20
2010,02,20,07,02,4.20
2010,02,20,07,03,4.20
2010,02,20,07,04,4.20
2010,02,20,07,05,4.20
2010,02,20,07,06,4.20
2010,02,20,07,07,4.20
2010,02,20,07,08,4.20
2010,02,20,07,09,4.20
2010,02,20,07,10,4.20
2010,02,20,07,11,4.20
2010,02,20,07,12,4.20
2010,02,20,07,13,4.20
2010,02,20,07,14,4.30
2010,02,20,07,15,4.30
2010,02,20,07,16,4.30
2010,02,20,07,17,4.30
2010,02,20,07,18,4.40
2010,02,20,07,19,4.40
2010,02,20,07,20,4.40
2010,02,20,07,21,4.40
2010,02,20,07,22,4.40
2010,02,20,07,23,4.40
2010,02,20,07,24,4.40
2010,02,20,07,25,4.40
2010,02,20,07,26,4.40
2010,02,20,07,27,4.50
2010,02,20,07,28,4.50
2010,02,20,07,29,4.50
2010,02,20,07,30,4.60
2010,02,20,07,31,4.60
2010,02,20,07,32,4.60
2010,02,20,07,33,4.70
2010,02,20,07,34,4.70
2010,02,20,07,35,4.80
2010,02,20,07,36,4.80
2010,02,20,07,37,4.90
2010,02,20,07,38,4.90
2010,02,20,07,39,5.00
2010,02,20,07,40,5.10
2010,02,20,07,41,5.10
2010,02,20,07,42,5.10
2010,02,20,07,43,5.10
2010,02,20,07,44,5.20
2010,02,20,07,45,5.20
2010,02,20,07,46,5.20
2010,02,20,07,47,5.20
2010,02,20,07,48,5.30
2010,02,20,07,49,5.30
2010,02,20,07,50,5.30
2010,02,20,07,51,5.30
2010,02,20,07,52,5.30
2010,02,20,07,53,5.30
2010,02,20,07,54,5.30
2010,02,20,07,55,5.30
2010,02,20,07,56,5.30
2010,02,20,07,57,5.30
2010,02,20,07,58,5.40
2010,02,20,07,59,5.40
2010,02,20,08,00,5.50
2010,02,20,08,01,5.50
2010,02,20,08,02,5.60
2010,02,20,08,03,5.70
2010,02,20,08,04,5.70
2010,02,20,08,05,5.80
2010,02,20,08,06,5.90
2010,02,20,08,07,5.90
2010,02,20,08,08,6.00
2010,02,20,08,09,6.10
2010,02,20,08,10,6.20
2010,02,20,08,11,6.20
2010,02,20,08,12,6.20
2010,02,20,08,13,6.30
2010,02,20,08,14,6.40
2010,02,20,08,15,6.40
2010,02,20,08,16,6.50
2010,02,20,08,17,6.60
2010,02,20,08,18,6.60
2010,02,20,08,19,6.60
2010,02,20,08,20,6.70
2010,02,20,08,21,6.80
2010,02,20,08,22,6.80
2010,02,20,08,23,6.90
2010,02,20,08,24,6.90
2010,02,20,08,25,7.00
2010,02,20,08,26,7.00
2010,02,20,08,27,7.10
2010,02,20,08,28,7.10
2010,02,20,08,29,7.10
2010,02,20,08,30,7.20
2010,02,20,08,31,7.20
2010,02,20,08,32,7.20
2010,02,20,08,33,7.30
2010,02,20,08,34,7.30
2010,02,20,08,35,7.30
2010,02,20,08,36,7.30
2010,02,20,08,37,7.30
2010,02,20,08,38,7.30
2010,02,20,08,39,7.30
2010,02,20,08,40,7.30
2010,02,20,08,41,7.30
2010,02,20,08,42,7.30
2010,02,20,08,43,7.30
2010,02,20,08,44,7.30
2010,02,20,08,45,7.30
2010,02,20,08,46,7.30
2010,02,20,08,47,7.40
2010,02,20,08,48,7.40
2010,02,20,08,49,7.40
2010,02,20,08,50,7.40
2010,02,20,08,51,7.50
2010,02,20,08,52,7.40
2010,02,20,08,53,7.50
2010,02,20,08,54,7.50
2010,02,20,08,55,7.50
2010,02,20,08,56,7.50
2010,02,20,08,57,7.60
2010,02,20,08,58,7.60
2010,02,20,08,59,7.60
2010,02,20,09,00,7.60
2010,02,20,09,01,7.60
2010,02,20,09,02,7.60
2010,02,20,09,03,7.60
2010,02,20,09,04,7.60
2010,02,20,09,05,7.70
2010,02,20,09,06,7.70
2010,02,20,09,07,7.70
2010,02,20,09,08,7.80
2010,02,20,09,09,7.80
2010,02,20,09,10,7.80
2010,02,20,09,11,7.80
2010,02,20,09,12,7.80
2010,02,20,09,13,7.80
2010,02,20,09,14,7.80
2010,02,20,09,15,7.90
2010,02,20,09,16,7.90
2010,02,20,09,17,8.00
2010,02,20,09,18,8.00
2010,02,20,09,19,8.00
2010,02,20,09,20,8.10
2010,02,20,09,21,8.10
2010,02,20,09,22,8.20
2010,02,20,09,23,8.20
2010,02,20,09,24,8.10
2010,02,20,09,25,8.10
2010,02,20,09,26,8.10
2010,02,20,09,27,8.20
2010,02,20,09,28,8.20
2010,02,20,09,29,8.20
2010,02,20,09,30,8.30
2010,02,20,09,31,8.30
2010,02,20,09,32,8.30
2010,02,20,09,33,8.40
2010,02,20,09,34,8.40
2010,02,20,09,35,8.50
2010,02,20,09,36,8.50
2010,02,20,09,37,8.50
2010,02,20,09,38,8.60
2010,02,20,09,39,8.60
2010,02,20,09,40,8.60
2010,02,20,09,41,8.60
2010,02,20,09,42,8.60
2010,02,20,09,43,8.70
2010,02,20,09,44,8.70
2010,02,20,09,45,8.70
2010,02,20,09,46,8.70
2010,02,20,09,47,8.70
2010,02,20,09,48,8.70
2010,02,20,09,49,8.70
2010,02,20,09,50,8.70
2010,02,20,09,51,8.70
2010,02,20,09,52,8.70
2010,02,20,09,53,8.70
2010,02,20,09,54,8.70
2010,02,20,09,55,8.70
2010,02,20,09,56,8.80
2010,02,20,09,57,8.80
2010,02,20,09,58,8.90
2010,02,20,09,59,8.90
2010,02,20,10,00,8.90
2010,02,20,10,01,9.00
2010,02,20,10,02,9.00
2010,02,20,10,03,9.10
2010,02,20,10,04,9.10
2010,02,20,10,05,9.20
2010,02,20,10,06,9.20
2010,02,20,10,07,9.20
2010,02,20,10,08,9.20
2010,02,20,10,09,9.20
2010,02,20,10,10,9.20
2010,02,20,10,11,9.20
2010,02,20,10,12,9.20
2010,02,20,10,13,9.20
2010,02,20,10,14,9.20
2010,02,20,10,15,9.20
2010,02,20,10,16,9.20
2010,02,20,10,17,9.30
2010,02,20,10,18,9.30
2010,02,20,10,19,9.40
2010,02,20,10,20,9.40
2010,02,20,10,21,9.50
2010,02,20,10,22,9.50
2010,02,20,10,23,9.60
2010,02,20,10,24,9.60
2010,02,20,10,25,9.70
2010,02,20,10,26,9.70
2010,02,20,10,27,9.70
2010,02,20,10,28,9.70
2010,02,20,10,29,9.80
2010,02,20,10,30,9.80
2010,02,20,10,31,9.80
2010,02,20,10,32,9.80
2010,02,20,10,33,9.80
2010,02,20,10,34,9.90
2010,02,20,10,35,9.90
2010,02,20,10,36,9.90
2010,02,20,10,37,9.90
2010,02,20,10,38,9.90
2010,02,20,10,39,9.80
2010,02,20,10,40,9.80
2010,02,20,10,41,9.70
2010,02,20,10,42,9.70
2010,02,20,10,43,9.70
2010,02,20,10,44,9.70
2010,02,20,10,45,9.70
2010,02,20,10,46,9.70
2010,02,20,10,47,9.70
2010,02,20,10,48,9.70
2010,02,20,10,49,9.70
2010,02,20,10,50,9.70
2010,02,20,10,51,9.70
2010,02,20,10,52,9.70
2010,02,20,10,53,9.70
2010,02,20,10,54,9.80
2010,02,20,10,55,9.70
2010,02,20,10,56,9.70
2010,02,20,10,57,9.70
2010,02,20,10,58,9.80
2010,02,20,10,59,9.80
2010,02,20,11,00,9.80
2010,02,20,11,01,9.80
2010,02,20,11,02,9.80
2010,02,20,11,03,9.70
2010,02,20,11,04,9.70
2010,02,20,11,05,9.70
2010,02,20,11,06,9.70
2010,02,20,11,07,9.70
2010,02,20,11,08,9.70
2010,02,20,11,09,9.70
2010,02,20,11,10,9.70
2010,02,20,11,11,9.70
2010,02,20,11,12,9.70
2010,02,20,11,13,9.70
2010,02,20,11,14,9.70
2010,02,20,11,15,9.70
2010,02,20,11,16,9.70
2010,02,20,11,17,9.70
2010,02,20,11,18,9.70
2010,02,20,11,19,9.70
2010,02,20,11,20,9.70
2010,02,20,11,21,9.70
2010,02,20,11,22,9.70
2010,02,20,11,23,9.70
2010,02,20,11,24,9.70
2010,02,20,11,25,9.70
2010,02,20,11,26,9.80
2010,02,20,11,27,9.80
2010,02,20,11,28,9.80
2010,02,20,11,29,9.90
2010,02,20,11,30,9.90
2010,02,20,11,31,9.90
2010,02,20,11,32,9.90
2010,02,20,11,33,9.90
2010,02,20,11,34,9.90
2010,02,20,11,35,9.90
2010,02,20,11,36,9.90
2010,02,20,11,37,9.90
2010,02,20,11,38,9.90
2010,02,20,11,39,9.90
2010,02,20,11,40,9.90
2010,02,20,11,41,9.90
2010,02,20,11,42,9.90
2010,02,20,11,43,9.90
2010,02,20,11,44,9.90
2010,02,20,11,45,9.90
2010,02,20,11,46,9.90
2010,02,20,11,47,10.10
2010,02,20,11,48,10.10
2010,02,20,11,49,10.10
2010,02,20,11,50,10.10
2010,02,20,11,51,10.10
2010,02,20,11,52,10.10
2010,02,20,11,53,10.10
2010,02,20,11,54,10.10
2010,02,20,11,55,10.10
2010,02,20,11,56,10.10
2010,02,20,11,57,10.20
2010,02,20,11,58,10.20
2010,02,20,11,59,10.20
2010,02,20,12,00,10.20
2010,02,20,12,01,10.20
2010,02,20,12,02,10.20
2010,02,20,12,03,10.20
2010,02,20,12,04,10.10
2010,02,20,12,05,10.10
2010,02,20,12,06,10.10
2010,02,20,12,07,10.20
2010,02,20,12,08,10.20
2010,02,20,12,09,10.20
2010,02,20,12,10,10.10
2010,02,20,12,11,10.10
2010,02,20,12,12,10.10
2010,02,20,12,13,10.10
2010,02,20,12,14,10.10
2010,02,20,12,15,10.10
2010,02,20,12,16,10.00
2010,02,20,12,17,9.90
2010,02,20,12,18,9.90
2010,02,20,12,19,9.90
2010,02,20,12,20,10.10
2010,02,20,12,21,10.10
2010,02,20,12,22,10.10
2010,02,20,12,23,10.10
2010,02,20,12,24,10.00
2010,02,20,12,25,9.90
2010,02,20,12,26,9.90
2010,02,20,12,27,9.90
2010,02,20,12,28,9.90
2010,02,20,12,29,9.90
2010,02,20,12,30,9.90
2010,02,20,12,31,9.90
2010,02,20,12,32,10.00
2010,02,20,12,33,10.10
2010,02,20,12,34,10.10
2010,02,20,12,35,10.10
2010,02,20,12,36,10.10
2010,02,20,12,37,10.10
2010,02,20,12,38,10.10
2010,02,20,12,39,10.10
2010,02,20,12,40,10.10
2010,02,20,12,41,10.00
2010,02,20,12,42,9.90
2010,02,20,12,43,9.90
2010,02,20,12,44,9.90
2010,02,20,12,45,9.90
2010,02,20,12,46,9.90
2010,02,20,12,47,10.00
2010,02,20,12,48,10.10
2010,02,20,12,49,10.20
2010,02,20,12,50,10.20
2010,02,20,12,51,10.10
2010,02,20,12,52,10.10
2010,02,20,12,53,10.10
2010,02,20,12,54,10.10
2010,02,20,12,55,10.10
2010,02,20,12,56,10.20
2010,02,20,12,57,10.20
2010,02,20,12,58,10.20
2010,02,20,12,59,10.30
2010,02,20,13,00,10.20
2010,02,20,13,01,10.20
2010,02,20,13,02,10.20
2010,02,20,13,03,10.20
2010,02,20,13,04,10.20
2010,02,20,13,05,10.20
2010,02,20,13,06,10.20
2010,02,20,13,07,10.20
2010,02,20,13,08,10.20
2010,02,20,13,09,10.30
2010,02,20,13,10,10.30
2010,02,20,13,11,10.30
2010,02,20,13,12,10.40
2010,02,20,13,13,10.40
2010,02,20,13,14,10.40
2010,02,20,13,15,10.40
2010,02,20,13,16,10.40
2010,02,20,13,17,10.40
2010,02,20,13,18,10.30
2010,02,20,13,19,10.30
2010,02,20,13,20,10.30
2010,02,20,13,21,10.30
2010,02,20,13,22,10.30
2010,02,20,13,23,10.30
2010,02,20,13,24,10.30
2010,02,20,13,25,10.30
2010,02,20,13,26,10.40
2010,02,20,13,27,10.40
2010,02,20,13,28,10.40
2010,02,20,13,29,10.50
2010,02,20,13,30,10.60
2010,02,20,13,31,10.60
2010,02,20,13,32,10.60
2010,02,20,13,33,10.60
2010,02,20,13,34,10.60
2010,02,20,13,35,10.60
2010,02,20,13,36,10.70
2010,02,20,13,37,10.60
2010,02,20,13,38,10.60
2010,02,20,13,39,10.60
2010,02,20,13,40,10.60
2010,02,20,13,41,10.60
2010,02,20,13,42,10.60
2010,02,20,13,43,10.60
2010,02,20,13,44,10.60
2010,02,20,13,45,10.60
2010,02,20,13,46,10.60
2010,02,20,13,47,10.60
2010,02,20,13,48,10.40
2010,02,20,13,49,10.40
2010,02,20,13,50,10.40
2010,02,20,13,51,10.40
2010,02,20,13,52,10.40
2010,02,20,13,53,10.40
2010,02,20,13,54,10.40
2010,02,20,13,55,10.40
2010,02,20,13,56,10.40
2010,02,20,13,57,10.40
2010,02,20,13,58,10.40
2010,02,20,13,59,10.40
2010,02,20,14,00,10.40
2010,02,20,14,01,10.40
2010,02,20,14,02,10.40
2010,02,20,14,03,10.50
2010,02,20,14,04,10.60
2010,02,20,14,05,10.60
2010,02,20,14,06,10.60
2010,02,20,14,07,10.60
2010,02,20,14,08,10.70
2010,02,20,14,09,10.70
2010,02,20,14,10,10.70
2010,02,20,14,11,10.80
2010,02,20,14,12,10.90
2010,02,20,14,13,10.90
2010,02,20,14,14,10.90
2010,02,20,14,15,10.90
2010,02,20,14,16,10.90
2010,02,20,14,17,10.90
2010,02,20,14,18,11.00
2010,02,20,14,19,11.00
2010,02,20,14,20,10.90
2010,02,20,14,21,10.90
2010,02,20,14,22,10.90
2010,02,20,14,23,10.90
2010,02,20,14,24,10.90
2010,02,20,14,25,10.90
2010,02,20,14,26,10.90
2010,02,20,14,27,10.90
2010,02,20,14,28,10.90
2010,02,20,14,29,10.90
2010,02,20,14,30,10.90
2010,02,20,14,31,10.80
2010,02,20,14,32,10.70
2010,02,20,14,33,10.70
2010,02,20,14,34,10.80
2010,02,20,14,35,10.80
2010,02,20,14,36,10.80
2010,02,20,14,37,10.90
2010,02,20,14,38,10.90
2010,02,20,14,39,10.90
2010,02,20,14,40,10.90
2010,02,20,14,41,10.90
2010,02,20,14,42,10.90
2010,02,20,14,43,10.90
2010,02,20,14,44,10.90
2010,02,20,14,45,10.90
2010,02,20,14,46,10.90
2010,02,20,14,47,10.80
2010,02,20,14,48,10.80
2010,02,20,14,49,10.80
2010,02,20,14,50,10.70
2010,02,20,14,51,10.70
2010,02,20,14,52,10.70
2010,02,20,14,53,10.60
2010,02,20,14,54,10.60
2010,02,20,14,55,10.60
2010,02,20,14,56,10.60
2010,02,20,14,57,10.60
2010,02,20,14,58,10.60
2010,02,20,14,59,10.60
2010,02,20,15,00,10.60
2010,02,20,15,01,10.60
2010,02,20,15,02,10.60
2010,02,20,15,03,10.60
2010,02,20,15,04,10.70
2010,02,20,15,05,10.70
2010,02,20,15,06,10.70
2010,02,20,15,07,10.70
2010,02,20,15,08,10.70
2010,02,20,15,09,10.70
2010,02,20,15,10,10.70
2010,02,20,15,11,10.70
2010,02,20,15,12,10.70
2010,02,20,15,13,10.70
2010,02,20,15,14,10.70
2010,02,20,15,15,10.80
2010,02,20,15,16,10.80
2010,02,20,15,17,10.80
2010,02,20,15,18,10.90
2010,02,20,15,19,10.90
2010,02,20,15,20,10.90
2010,02,20,15,21,10.90
2010,02,20,15,22,10.90
2010,02,20,15,23,10.90
2010,02,20,15,24,10.90
2010,02,20,15,25,10.90
2010,02,20,15,26,10.90
2010,02,20,15,27,10.90
2010,02,20,15,28,10.90
2010,02,20,15,29,10.90
2010,02,20,15,30,10.80
2010,02,20,15,31,10.80
2010,02,20,15,32,10.80
2010,02,20,15,33,10.80
2010,02,20,15,34,10.80
2010,02,20,15,35,10.80
2010,02,20,15,36,10.80
2010,02,20,15,37,10.80
2010,02,20,15,38,10.90
2010,02,20,15,39,10.90
2010,02,20,15,40,10.90
2010,02,20,15,41,11.00
2010,02,20,15,42,11.10
2010,02,20,15,43,11.10
2010,02,20,15,44,11.10
2010,02,20,15,45,11.10
2010,02,20,15,46,11.10
2010,02,20,15,47,11.10
2010,02,20,15,48,11.10
2010,02,20,15,49,11.10
2010,02,20,15,50,11.10
2010,02,20,15,51,11.10
2010,02,20,15,52,11.10
2010,02,20,15,53,11.10
2010,02,20,15,54,11.10
2010,02,20,15,55,11.10
2010,02,20,15,56,11.10
2010,02,20,15,57,11.10
2010,02,20,15,58,11.20
2010,02,20,15,59,11.20
2010,02,20,16,00,11.20
2010,02,20,16,01,11.20
2010,02,20,16,02,11.20
2010,02,20,16,03,11.30
2010,02,20,16,04,11.30
2010,02,20,16,05,11.30
2010,02,20,16,06,11.30
2010,02,20,16,07,11.30
2010,02,20,16,08,11.30
2010,02,20,16,09,11.30
2010,02,20,16,10,11.30
2010,02,20,16,11,11.20
2010,02,20,16,12,11.20
2010,02,20,16,13,11.20
2010,02,20,16,14,11.20
2010,02,20,16,15,11.20
2010,02,20,16,16,11.20
2010,02,20,16,17,11.20
2010,02,20,16,18,11.20
2010,02,20,16,19,11.10
2010,02,20,16,20,11.10
2010,02,20,16,21,11.10
2010,02,20,16,22,11.10
2010,02,20,16,23,11.10
2010,02,20,16,24,11.10
2010,02,20,16,25,11.10
2010,02,20,16,26,11.10
2010,02,20,16,27,11.10
2010,02,20,16,28,11.10
2010,02,20,16,29,11.10
2010,02,20,16,30,11.10
2010,02,20,16,31,11.10
2010,02,20,16,32,11.10
2010,02,20,16,33,10.90
2010,02,20,16,34,10.90
2010,02,20,16,35,10.90
2010,02,20,16,36,10.90
2010,02,20,16,37,10.90
2010,02,20,16,38,10.90
2010,02,20,16,39,10.90
2010,02,20,16,40,10.80
2010,02,20,16,41,10.80
2010,02,20,16,42,10.70
2010,02,20,16,43,10.60
2010,02,20,16,44,10.60
2010,02,20,16,45,10.60
2010,02,20,16,46,10.50
2010,02,20,16,47,10.40
2010,02,20,16,48,10.40
2010,02,20,16,49,10.40
2010,02,20,16,50,10.30
2010,02,20,16,51,10.30
2010,02,20,16,52,10.30
2010,02,20,16,53,10.20
2010,02,20,16,54,10.20
2010,02,20,16,55,10.10
2010,02,20,16,56,10.10
2010,02,20,16,57,10.10
2010,02,20,16,58,10.10
2010,02,20,16,59,10.10
2010,02,20,17,00,10.00
2010,02,20,17,01,9.90
2010,02,20,17,02,9.90
2010,02,20,17,03,9.90
2010,02,20,17,04,9.90
2010,02,20,17,05,9.90
2010,02,20,17,06,9.90
2010,02,20,17,07,9.90
2010,02,20,17,08,9.90
2010,02,20,17,09,9.80
2010,02,20,17,10,9.80
2010,02,20,17,11,9.80
2010,02,20,17,12,9.80
2010,02,20,17,13,9.70
2010,02,20,17,14,9.70
2010,02,20,17,15,9.70
2010,02,20,17,16,9.70
2010,02,20,17,17,9.70
2010,02,20,17,18,9.60
2010,02,20,17,19,9.60
2010,02,20,17,20,9.60
2010,02,20,17,21,9.50
2010,02,20,17,22,9.50
2010,02,20,17,23,9.50
2010,02,20,17,24,9.40
2010,02,20,17,25,9.40
2010,02,20,17,26,9.30
2010,02,20,17,27,9.30
2010,02,20,17,28,9.30
2010,02,20,17,29,9.30
2010,02,20,17,30,9.20
2010,02,20,17,31,9.20
2010,02,20,17,32,9.20
2010,02,20,17,33,9.20
2010,02,20,17,34,9.20
2010,02,20,17,35,9.20
2010,02,20,17,36,9.20
2010,02,20,17,37,9.10
2010,02,20,17,38,9.10
2010,02,20,17,39,9.10
2010,02,20,17,40,9.00
2010,02,20,17,41,9.00
2010,02,20,17,42,8.90
2010,02,20,17,43,8.90
2010,02,20,17,44,8.80
2010,02,20,17,45,8.80
2010,02,20,17,46,8.70
2010,02,20,17,47,8.70
2010,02,20,17,48,8.70
2010,02,20,17,49,8.60
2010,02,20,17,50,8.60
2010,02,20,17,51,8.50
2010,02,20,17,52,8.50
2010,02,20,17,53,8.40